This is the latest recevied weather packets stored in our database for station/object KI4BIY. If no packets are shown the sender has not sent any weather packets the latest 10 day(s).
| Time | Temp. | Humidity | Pressure | Rain* | Wind** | Luminosity | Snow |
|---|---|---|---|---|---|---|---|
| 1778161577 | 13.89° C | 88% | 1017.3 hPa | 0 mm | - | 254 W/m² | - |
| 1778161273 | 13.33° C | 94% | 1017.2 hPa | 0 mm | - | 276 W/m² | - |
| 1778160969 | 12.78° C | 99% | 1017.1 hPa | 0 mm | - | 304 W/m² | - |
| 1778160667 | 12.22° C | 99% | 1017.1 hPa | 0 mm | - | 292 W/m² | - |
| 1778160363 | 12.22° C | 99% | 1017.2 hPa | 0 mm | - | 220 W/m² | - |
| 1778160060 | 12.22° C | 99% | 1017.1 hPa | 0 mm | - | 254 W/m² | - |
| 1778159757 | 11.67° C | 99% | 1017.2 hPa | 0 mm | - | 261 W/m² | - |
| 1778159454 | 11.11° C | 99% | 1017.3 hPa | 0 mm | - | 222 W/m² | - |
| 1778159151 | 11.11° C | 99% | 1017.1 hPa | 0 mm | - | 197 W/m² | - |
| 1778158849 | 11.11° C | 99% | 1016.8 hPa | 0 mm | - | 156 W/m² | - |
| 1778158548 | 11.11° C | 99% | 1016.8 hPa | 0 mm | - | 113 W/m² | - |
| 1778158244 | 11.11° C | 99% | 1016.8 hPa | 0 mm | - | 196 W/m² | - |
| 1778157941 | 10.56° C | 99% | 1016.6 hPa | 0 mm | - | 101 W/m² | - |
| 1778157639 | 10° C | 99% | 1016.7 hPa | 0 mm | - | 39 W/m² | - |
| 1778157336 | 10.56° C | 99% | 1016.4 hPa | 0 mm | - | 30 W/m² | - |
| 1778157033 | 10.56° C | 99% | 1016.6 hPa | 0 mm | - | 28 W/m² | - |
| 1778156728 | 10.56° C | 99% | 1016.5 hPa | 0 mm | - | 39 W/m² | - |
| 1778156424 | 10° C | 99% | 1016.3 hPa | 0 mm | - | 42 W/m² | - |
| 1778156120 | 10° C | 99% | 1016 hPa | 0 mm | - | 35 W/m² | - |
| 1778155816 | 10° C | 99% | 1016.2 hPa | 0 mm | - | 30 W/m² | - |
| 1778155512 | 10° C | 99% | 1016.1 hPa | 0 mm | - | 32 W/m² | - |
| 1778155210 | 10° C | 99% | 1015.9 hPa | 0 mm | - | 26 W/m² | - |
| 1778154906 | 9.44° C | 99% | 1015.8 hPa | 0 mm | - | 24 W/m² | - |
| 1778154601 | 9.44° C | 99% | 1015.8 hPa | 0 mm | - | 18 W/m² | - |
| 1778154298 | 9.44° C | 99% | 1015.7 hPa | 0 mm | - | 16 W/m² | - |
* Rain latest hour (hover to see other rain measurements)
** Current wind speed in m/s (hover to see current wind gust speed)